STARLINK-1157 (45055 NORAD) Tracking and Keplerian Element Data

This shows tracking and keplerian element data for the satellite.

Feedback or suggestion? Click here.




ElementValue
Catalog45055
NameSTARLINK-1157
Epoch Orbit1024
Epoch Day93.91667824
Epoch Year2020
RAAN293.3786
Inclination53.0014
Eccentricity0.0001758
Argument of Perigee83.9519
Mean Anonmoly80.9913
Mean Motion15.0394586
Decay Rate0.00016648
L11 45055U 20006M 20093.91667824 .00016648 00000-0 12106-2 0 9991
L22 45055 53.0014 293.3786 0001758 83.9519 80.9913 15.03945860 10246

Live tracking and technical data element details for STARLINK-1157 (NORAD 45055). STARLINK-1157 can be tracked NOW for your location showing map with azimuth and elevation plus other details from your city location.

Track the satellite on the map from your city or location and see movement details for azimuth, elevation, latitude, longitude, range, height, and movement on the map or in text.







IsCatalogInMostPopularTable: catalog: 45055, numindb: 14
Update: records affected: 1



GetName: 45055 STARLINK-1157

Hit Count: updated at: Sun, 05 Apr 2020 19:00:18 GMT